FW8514 Weather Reports


time (UTC)temp
F
wind
direction
speed
knots
gust
knots
rain 1hr
in
rain 24hr
in
rain mn
in
humidity
%
barometer
mb
20260505214404 79 241 6.1 8.7 0.00 0.00 0.00 44 990.1
20260505213901 80 191 0.9 1.7 0.00 0.00 0.00 45 990.1
20260505213359 80 268 3.5 5.2 0.00 0.00 0.00 45 990.1
20260505212855 80 281 4.3 5.2 0.00 0.00 0.00 43 990.2
20260505212352 81 177 2.6 4.3 0.00 0.00 0.00 43 990.1
20260505211848 81 206 9.6 11.3 0.00 0.00 0.00 41 990.0
20260505211346 81 243 4.3 6.1 0.00 0.00 0.00 43 990.2
20260505210842 81 210 1.7 2.6 0.00 0.00 0.00 43 990.1
20260505210339 80 225 2.6 4.3 0.00 0.00 0.00 43 990.1
20260505205835 81 236 5.2 6.1 0.00 0.00 0.00 42 990.1
20260505205334 80 234 3.5 6.1 0.00 0.00 0.00 44 990.0
20260505204830 80 217 6.1 9.6 0.00 0.00 0.00 42 990.4
20260505204328 81 251 6.1 8.7 0.00 0.00 0.00 41 990.2
20260505203826 81 238 2.6 4.3 0.00 0.00 0.00 42 990.1
20260505203322 80 248 4.3 5.2 0.00 0.00 0.00 42 990.0
20260505202818 81 246 7.8 12.2 0.00 0.00 0.00 42 990.0
20260505202314 81 229 7.0 7.8 0.00 0.00 0.00 42 990.2
20260505201811 81 266 2.6 2.6 0.00 0.00 0.00 44 990.3
20260505201309 81 198 7.0 12.2 0.00 0.00 0.00 42 990.1
20260505200807 80 201 3.5 4.3 0.00 0.00 0.00 41 990.3
20260505200304 80 232 6.1 7.0 0.00 0.00 0.00 43 990.5
20260505195759 81 219 1.7 2.6 0.00 0.00 0.00 42 990.4
20260505195257 81 231 4.3 5.2 0.00 0.00 0.00 42 990.3
20260505194753 81 246 5.2 7.0 0.00 0.00 0.00 42 990.4
20260505194250 82 262 5.2 7.0 0.00 0.00 0.00 41 990.3
20260505193746 81 247 6.1 7.8 0.00 0.00 0.00 42 990.3
20260505193244 81 209 7.8 9.6 0.00 0.00 0.00 42 990.5
20260505192742 81 220 3.5 6.1 0.00 0.00 0.00 42 990.6
20260505192239 81 237 5.2 6.1 0.00 0.00 0.00 41 990.8
20260505191737 81 245 8.7 13.0 0.00 0.00 0.00 41 990.7
20260505191236 81 253 7.8 8.7 0.00 0.00 0.00 40 990.6
20260505190731 81 257 6.1 7.0 0.00 0.00 0.00 41 990.8
20260505190231 81 226 7.0 8.7 0.00 0.00 0.00 42 990.8
20260505185728 81 182 2.6 2.6 0.00 0.00 0.00 40 990.6
20260505185225 82 241 3.5 5.2 0.00 0.00 0.00 43 990.8
20260505184720 82 217 5.2 7.0 0.00 0.00 0.00 40 991.0
20260505184218 81 250 3.5 4.3 0.00 0.00 0.00 41 990.9
20260505183715 82 219 4.3 6.1 0.00 0.00 0.00 39 990.9
20260505183213 81 254 1.7 1.7 0.00 0.00 0.00 40 990.9
20260505182708 81 180 4.3 7.0 0.00 0.00 0.00 40 991.0
20260505182206 81 230 6.1 7.8 0.00 0.00 0.00 41 990.8
20260505181702 81 207 1.7 6.1 0.00 0.00 0.00 41 991.0
20260505181200 82 249 5.2 7.0 0.00 0.00 0.00 41 991.2
20260505180655 82 289 5.2 7.0 0.00 0.00 0.00 40 991.1
20260505180153 82 239 2.6 2.6 0.00 0.00 0.00 45 991.2
20260505175649 81 274 3.5 5.2 0.00 0.00 0.00 45 991.3
20260505175145 82 264 6.1 7.0 0.00 0.00 0.00 44 991.5
20260505174642 82 188 3.5 4.3 0.00 0.00 0.00 45 991.2
20260505174138 81 283 3.5 4.3 0.00 0.00 0.00 47 991.6
20260505173635 82 277 1.7 2.6 0.00 0.00 0.00 46 991.5
20260505173132 83 228 2.6 6.1 0.00 0.00 0.00 47 991.4
20260505172629 81 260 6.1 7.8 0.00 0.00 0.00 47 991.4
20260505172126 81 280 3.5 4.3 0.00 0.00 0.00 46 991.7
20260505171620 81 266 5.2 7.0 0.00 0.00 0.00 46 991.4
20260505171118 82 280 3.5 5.2 0.00 0.00 0.00 46 991.6
20260505170615 82 234 1.7 2.6 0.00 0.00 0.00 45 991.6
20260505170111 82 278 3.5 5.2 0.00 0.00 0.00 45 991.8
20260505165606 81 228 4.3 5.2 0.00 0.00 0.00 46 991.7
20260505165102 82 247 6.1 7.8 0.00 0.00 0.00 46 992.0
20260505164558 81 262 3.5 5.2 0.00 0.00 0.00 45 991.9
20260505164056 81 261 2.6 2.6 0.00 0.00 0.00 47 991.8
20260505163555 80 204 2.6 2.6 0.00 0.00 0.00 46 992.3
20260505163051 80 269 1.7 2.6 0.00 0.00 0.00 47 991.9
20260505162549 80 229 3.5 4.3 0.00 0.00 0.00 48 992.2
20260505162047 80 148 2.6 4.3 0.00 0.00 0.00 49 992.1
20260505161543 80 242 5.2 7.8 0.00 0.00 0.00 47 992.1
20260505161041 80 225 2.6 4.3 0.00 0.00 0.00 50 992.2
20260505160539 80 227 2.6 2.6 0.00 0.00 0.00 51 992.1
20260505153015 80 258 2.6 2.6 0.00 0.00 0.00 49 992.3
20260505152512 79 205 1.7 1.7 0.00 0.00 0.00 51 992.5
20260505152008 80 166 1.7 1.7 0.00 0.00 0.00 47 992.3
20260505151503 80 198 2.6 2.6 0.00 0.00 0.00 50 992.5
20260505151000 80 254 2.6 2.6 0.00 0.00 0.00 48 992.6
20260505150457 79 242 2.6 2.6 0.00 0.00 0.00 48 992.3
20260505140427 73 189 1.7 1.7 0.00 0.00 0.00 55 992.8
20260505124840 67 147 0.9 1.7 0.00 0.00 0.00 65 993.6
20260505124337 66 220 1.7 1.7 0.00 0.00 0.00 65 993.5
20260505123833 66 238 2.6 2.6 0.00 0.00 0.00 66 993.6
20260505123330 66 251 4.3 4.3 0.00 0.00 0.00 66 993.4
20260505122826 65 249 1.7 2.6 0.00 0.00 0.00 67 993.3
20260505122324 65 255 2.6 2.6 0.00 0.00 0.00 68 993.3
20260505121820 64 278 4.3 7.0 0.00 0.00 0.00 68 993.2
20260505121317 64 266 4.3 6.1 0.00 0.00 0.00 68 993.2
20260505120813 64 259 4.3 5.2 0.00 0.00 0.00 69 992.9
20260505120309 63 234 2.6 2.6 0.00 0.00 0.00 70 993.0
20260505115808 63 231 4.3 5.2 0.00 0.00 0.00 69 993.1
20260505115306 63 275 4.3 6.1 0.00 0.00 0.00 69 992.9
20260505114803 63 224 4.3 5.2 0.00 0.00 0.00 71 992.9
20260505114300 62 269 4.3 5.2 0.00 0.00 0.00 70 992.9
20260505113756 62 256 3.5 4.3 0.00 0.00 0.00 71 992.9
20260505113252 62 228 2.6 2.6 0.00 0.00 0.00 72 992.7
20260505112748 61 235 4.3 5.2 0.00 0.00 0.00 72 992.9
20260505112246 61 242 4.3 6.1 0.00 0.00 0.00 74 992.9
20260505111741 60 235 2.6 2.6 0.00 0.00 0.00 75 992.9
20260505111237 60 221 2.6 4.3 0.00 0.00 0.00 75 992.6
20260505110733 60 202 3.5 4.3 0.00 0.00 0.00 75 992.6
20260505110231 59 274 3.5 4.3 0.00 0.00 0.00 77 992.4
20260505102206 58 225 1.7 1.7 0.00 0.00 0.00 80 992.3
20260505101705 58 204 1.7 1.7 0.00 0.00 0.00 80 992.3
20260505101201 57 221 0.9 0.9 0.00 0.00 0.00 80 992.2
20260505100657 57 219 0.0 0.9 0.00 0.00 0.00 81 992.2
20260505100154 57 219 0.9 0.9 0.00 0.00 0.00 80 992.1
20260505095649 57 217 0.0 0.0 0.00 0.00 0.00 81 992.4
20260505095147 57 217 0.0 0.0 0.00 0.00 0.00 80 992.0
20260505094643 58 221 0.0 0.0 0.00 0.00 0.00 80 992.1
20260505094139 58 222 0.0 0.0 0.00 0.00 0.00 79 992.3
20260505093636 58 222 0.0 0.9 0.00 0.00 0.00 79 992.1
20260505093133 58 212 0.9 0.9 0.00 0.00 0.00 80 992.0
20260505092630 58 222 0.0 0.0 0.00 0.00 0.00 79 992.0
20260505092129 58 181 0.0 0.0 0.00 0.00 0.00 79 992.0
20260505091625 57 189 0.0 0.9 0.00 0.00 0.00 80 992.0
20260505091124 57 183 0.0 0.9 0.00 0.00 0.00 80 992.0
20260505090621 57 180 0.0 0.0 0.00 0.00 0.00 80 992.1
20260505090119 57 165 0.0 0.0 0.00 0.00 0.00 80 992.0
20260505085616 58 165 0.0 0.9 0.00 0.00 0.00 79 992.2
20260505085115 58 162 0.9 0.9 0.00 0.00 0.00 79 991.8
20260505084612 58 162 0.0 0.0 0.00 0.00 0.00 78 992.0
20260505084110 58 163 0.9 0.9 0.00 0.00 0.00 79 991.8
20260505083607 58 154 0.0 0.0 0.00 0.00 0.00 78 991.8
20260505083103 59 153 0.9 1.7 0.00 0.00 0.00 77 991.9
20260505082559 59 186 0.0 0.0 0.00 0.00 0.00 77 992.0
20260505082057 59 201 0.0 0.0 0.00 0.00 0.00 76 991.9
20260505081553 59 208 0.0 0.0 0.00 0.00 0.00 76 991.8
20260505081050 59 208 0.0 0.0 0.00 0.00 0.00 75 991.9
20260505080546 59 208 0.0 0.0 0.00 0.00 0.00 75 991.9
20260505080043 60 208 0.0 0.0 0.00 0.00 0.00 75 992.0
20260505075539 60 208 0.0 0.0 0.00 0.00 0.00 74 992.0
20260505075036 60 208 0.0 0.0 0.00 0.00 0.00 73 991.8
20260505074533 60 208 0.0 0.0 0.00 0.00 0.00 73 991.9
20260505074030 61 210 0.0 0.0 0.00 0.00 0.00 72 992.1
20260505073527 61 224 0.9 0.9 0.00 0.00 0.00 71 992.1
20260505073026 61 223 1.7 1.7 0.00 0.00 0.00 72 992.1
20260505072521 61 242 0.9 1.7 0.00 0.00 0.00 71 992.1
20260505072017 61 238 0.0 0.9 0.00 0.00 0.00 71 992.1
20260505071513 61 243 0.9 1.7 0.00 0.00 0.00 71 991.9
20260505071012 61 256 0.9 1.7 0.00 0.00 0.00 70 992.1
20260505070509 61 245 0.9 1.7 0.00 0.00 0.00 70 992.4
20260505070004 61 232 1.7 1.7 0.00 0.00 0.00 70 992.1
20260505065500 61 230 1.7 2.6 0.00 0.00 0.00 70 992.0
20260505064957 61 256 2.6 2.6 0.00 0.00 0.00 69 992.0
20260505064454 61 210 0.9 1.7 0.00 0.00 0.00 71 992.3
20260505063952 61 254 0.9 0.9 0.00 0.00 0.00 71 992.0
20260505063449 61 255 0.9 0.9 0.00 0.00 0.00 69 992.0
20260505062945 60 261 1.7 1.7 0.00 0.00 0.00 70 992.1
20260505062442 61 253 0.9 0.9 0.00 0.00 0.00 70 992.0
20260505061939 61 264 0.0 0.0 0.00 0.00 0.00 69 992.1
20260505061437 61 283 1.7 2.6 0.00 0.00 0.00 69 992.0
20260505060934 61 246 0.0 0.9 0.00 0.00 0.00 69 992.0
20260505060431 61 269 0.9 1.7 0.00 0.00 0.00 69 991.8
20260505055927 61 198 0.9 0.9 0.00 0.00 0.00 69 991.8
20260505055424 61 78 1.7 2.6 0.00 0.00 0.00 68 991.8
20260505054921 61 246 0.0 0.9 0.00 0.00 0.00 68 991.8
20260505054418 61 252 0.9 1.7 0.00 0.00 0.00 67 991.9
20260505053916 61 239 1.7 1.7 0.00 0.00 0.00 67 991.8
20260505053413 61 243 0.9 0.9 0.00 0.00 0.00 67 991.7
20260505052909 61 235 1.7 2.6 0.00 0.00 0.00 66 992.0
20260505052406 61 242 2.6 4.3 0.00 0.00 0.00 67 991.7
20260505051904 61 220 0.9 0.9 0.00 0.00 0.00 67 991.7
20260505051401 61 253 1.7 2.6 0.00 0.00 0.00 65 991.9
20260505050859 62 223 0.9 0.9 0.00 0.00 0.00 65 992.1
20260505050357 62 231 1.7 1.7 0.00 0.00 0.00 64 991.8
20260505041324 62 232 0.0 0.9 0.00 0.00 0.00 61 991.9
20260505040821 62 199 0.9 0.9 0.00 0.00 0.00 60 991.8
20260505040319 62 183 1.7 2.6 0.00 0.00 0.00 60 991.6
20260505035815 62 236 2.6 4.3 0.00 0.00 0.00 59 991.8
20260505035311 63 182 0.9 1.7 0.00 0.00 0.00 59 991.7
20260505034809 63 212 2.6 4.3 0.00 0.00 0.00 59 991.6
20260505034305 63 119 0.9 0.9 0.00 0.00 0.00 58 991.4
20260505033802 62 221 1.7 2.6 0.00 0.00 0.00 57 991.6
20260505033259 62 218 2.6 5.2 0.00 0.00 0.00 58 991.7
20260505032758 62 240 1.7 2.6 0.00 0.00 0.00 57 991.6
20260505032253 62 196 0.9 1.7 0.00 0.00 0.00 58 991.7
20260505031750 62 223 0.9 0.9 0.00 0.00 0.00 58 991.8
20260505031246 62 191 1.7 1.7 0.00 0.00 0.00 58 991.8
20260505030744 62 133 0.0 0.0 0.00 0.00 0.00 57 991.7
20260505030240 63 237 0.0 0.0 0.00 0.00 0.00 56 991.8
20260505025736 63 234 0.9 1.7 0.00 0.00 0.00 56 991.8
20260505025234 63 197 0.9 0.9 0.00 0.00 0.00 56 991.7
20260505024732 63 214 1.7 2.6 0.00 0.00 0.00 56 991.7
20260505024229 63 252 0.9 0.9 0.00 0.00 0.00 55 991.7
20260505023726 63 211 0.9 0.9 0.00 0.00 0.00 56 991.7
20260505023223 63 230 1.7 2.6 0.00 0.00 0.00 54 991.8
20260505022721 64 241 0.9 1.7 0.00 0.00 0.00 54 992.0
20260505022218 64 248 1.7 1.7 0.00 0.00 0.00 53 992.1
20260505021714 64 206 0.0 0.9 0.00 0.00 0.00 55 992.2
20260505021212 64 240 0.9 1.7 0.00 0.00 0.00 54 992.0
20260505020707 64 220 3.5 5.2 0.00 0.00 0.00 53 992.2
20260505020203 64 252 4.3 7.8 0.00 0.00 0.00 54 992.0
20260505015700 64 245 1.7 1.7 0.00 0.00 0.00 53 991.9
20260505015157 64 227 0.9 0.9 0.00 0.00 0.00 54 992.1
20260505014654 64 207 0.9 0.9 0.00 0.00 0.00 54 991.9
20260505014151 64 175 0.9 1.7 0.00 0.00 0.00 54 992.1
20260505013648 64 234 0.0 0.0 0.00 0.00 0.00 53 992.0
20260505013145 64 239 0.9 0.9 0.00 0.00 0.00 54 992.1
20260505012643 64 244 1.7 1.7 0.00 0.00 0.00 53 992.1
20260505012140 64 221 0.9 0.9 0.00 0.00 0.00 53 991.7
20260505011636 65 226 0.9 1.7 0.00 0.00 0.00 53 992.0
20260505011134 65 227 1.7 1.7 0.00 0.00 0.00 52 991.7
20260505010633 64 218 1.7 1.7 0.00 0.00 0.00 53 991.8
20260505010131 65 211 0.0 0.9 0.00 0.00 0.00 53 991.6
20260505005627 65 222 1.7 1.7 0.00 0.00 0.00 52 991.5
20260505005124 65 231 0.0 0.9 0.00 0.00 0.00 53 991.6
20260505004621 65 193 0.0 0.0 0.00 0.00 0.00 53 991.4
20260505004118 65 231 0.0 0.0 0.00 0.00 0.00 53 991.5
20260505003615 65 191 0.0 0.0 0.00 0.00 0.00 52 991.7
20260505003112 66 204 0.9 0.9 0.00 0.00 0.00 52 991.3
20260505002608 66 204 0.0 0.0 0.00 0.00 0.00 51 991.5
20260505002107 67 245 0.9 0.9 0.00 0.00 0.00 50 991.4
20260505001603 67 234 1.7 1.7 0.00 0.00 0.00 49 991.3
20260505001101 66 231 0.9 1.7 0.00 0.00 0.00 50 991.3
20260505000558 67 215 0.9 0.9 0.00 0.00 0.00 50 991.2
20260505000056 68 205 0.9 1.7 0.00 0.00 0.00 48 991.5
20260504235552 67 238 0.9 2.6 0.00 0.00 0.00 49 991.1
20260504235049 67 269 0.9 1.7 0.00 0.00 0.00 49 991.3
20260504234546 68 220 1.7 2.6 0.00 0.00 0.00 48 991.1
20260504234043 68 182 0.9 0.9 0.00 0.00 0.00 49 991.1
20260504233538 68 232 0.9 0.9 0.00 0.00 0.00 48 991.4
20260504233035 68 237 0.9 0.9 0.00 0.00 0.00 47 991.2
20260504232532 69 245 2.6 2.6 0.00 0.00 0.00 47 991.3
20260504232030 69 212 0.9 0.9 0.00 0.00 0.00 47 991.2
20260504231526 69 218 1.7 1.7 0.00 0.00 0.00 47 991.3
20260504231022 69 245 2.6 2.6 0.00 0.00 0.00 46 991.2
20260504230519 70 222 0.9 1.7 0.00 0.00 0.00 46 991.1
20260504230018 69 242 1.7 1.7 0.00 0.00 0.00 45 991.1
20260504225514 70 238 0.9 0.9 0.00 0.00 0.00 46 991.4
20260504225012 70 191 0.9 1.7 0.00 0.00 0.00 46 991.3
20260504224508 70 244 1.7 1.7 0.00 0.00 0.00 44 991.3
20260504224005 70 206 0.9 1.7 0.00 0.00 0.00 45 991.2
20260504223502 70 46 1.7 1.7 0.00 0.00 0.00 44 991.2
20260504222957 70 258 5.2 6.1 0.00 0.00 0.00 43 991.1
20260504222455 71 266 2.6 5.2 0.00 0.00 0.00 44 991.1
20260504221952 70 247 2.6 4.3 0.00 0.00 0.00 45 991.6
20260504221449 71 207 3.5 5.2 0.00 0.00 0.00 43 991.1
20260504220946 71 279 4.3 5.2 0.00 0.00 0.00 43 991.2
20260504220443 71 194 2.6 2.6 0.00 0.00 0.00 43 991.1
20260504215940 71 235 2.6 4.3 0.00 0.00 0.00 44 991.2
20260504215436 72 237 3.5 4.3 0.00 0.00 0.00 43 991.2
20260504214933 72 269 3.5 4.3 0.00 0.00 0.00 44 991.4